Hopkins, SC

6:18 PM EDT on September 27, 2016 (GMT -0400)
McEntire Angs

Weather History for KMMT - February, 2013

Change the Weather History Date:

Thursday, February 14, 2013

  Actual Average Record
Temperature  
Mean Temperature 43 °F -  
Max Temperature 53 °F 58 °F 73 °F (2000)
Min Temperature 33 °F 38 °F 22 °F (2015)
Degree Days  
Heating Degree Days 22    
Moisture  
Dew Point 37 °F    
Average Humidity 83    
Maximum Humidity 100    
Minimum Humidity 50    
Precipitation  
Precipitation 0.00 in - - ()
Sea Level Pressure  
Sea Level Pressure 30.03 in    
Wind  
Wind Speed 3 mph (NNW)    
Max Wind Speed 6 mph    
Max Gust Speed -    
Visibility 8 miles    
Events Fog    
Averages and records for this station are not official NWS values.
T = Trace of Precipitation, MM = Missing Value Source: NWS Daily Summary

Daily Weather History Graph

Daily Weather History Graph

Search for Another Location

Airport or City:

Trip Planner

Search our weather history database for the weather conditions in past years. The results will help you decide how hot, cold, wet, or windy it might be!

Date:

Astronomy

Feb. 14, 2013 Rise Set
Actual Time 7:08 AM EST 6:06 PM EST
Civil Twilight 6:42 AM EST 6:32 PM EST
Nautical Twilight 6:13 AM EST 7:01 PM EST
Astronomical Twilight 5:44 AM EST 7:30 PM EST
Moon 9:25 AM EST (2/14) 10:50 PM EST (2/14)
Length of Visible Light 11h 49m
Length of Day
10h 58m
Waxing Crescent, 21% of the Moon is Illuminated
Feb 14
Waxing Crescent
Feb 17
First Quarter
Feb 25
Full
Mar 4
Last Quarter
Mar 11
New

Hourly Weather History & Observations

Time (EST) Temp. Windchill Dew Point Humidity Pressure Visibility Wind Dir Wind Speed Gust Speed Precip Events Conditions
12:58 AM 44.4 °F 42.0 °F 39.9 °F 84% 29.90 in 10.0 mi WNW 4.6 mph - N/A   Clear
1:58 AM 43.7 °F 40.3 °F 40.3 °F 88% 29.91 in 10.0 mi WNW 5.8 mph - N/A   Clear
2:58 AM 44.1 °F 42.5 °F 38.7 °F 81% 29.94 in 10.0 mi West 3.5 mph - N/A   Clear
3:58 AM 42.1 °F 40.2 °F 38.7 °F 88% 29.96 in 10.0 mi West 3.5 mph - N/A   Clear
4:58 AM 41.0 °F - 38.8 °F 92% 29.98 in 10.0 mi WNW 2.3 mph - N/A   Clear
5:58 AM 38.3 °F - 37.8 °F 98% 29.99 in 10.0 mi North 2.3 mph - N/A   Clear
6:18 AM 35.6 °F - 35.6 °F 100% 29.98 in 2.5 mi NNE 1.2 mph - N/A   Clear
6:23 AM 35.6 °F - 35.6 °F 100% 29.99 in 1.8 mi Calm Calm - N/A   Clear
6:28 AM 35.6 °F - 35.6 °F 100% 30.00 in 2.5 mi Calm Calm - N/A   Clear
6:38 AM 35.6 °F - 35.6 °F 100% 29.99 in 5.0 mi NNW 1.2 mph - N/A   Clear
6:58 AM 35.8 °F - 35.6 °F 99% 30.02 in 7.0 mi West 2.3 mph - N/A Fog Shallow Fog
7:58 AM 34.7 °F 30.6 °F 34.5 °F 99% 30.05 in 7.0 mi NNW 4.6 mph - N/A Fog Shallow Fog
8:58 AM 43.2 °F 41.5 °F 38.7 °F 84% 30.06 in 7.0 mi NNW 3.5 mph - N/A   Mostly Cloudy
9:58 AM 45.5 °F 44.2 °F 36.0 °F 69% 30.08 in 7.0 mi NNE 3.5 mph - N/A   Overcast
10:58 AM 48.0 °F - 35.2 °F 61% 30.10 in 7.0 mi East 4.6 mph - N/A   Overcast
11:58 AM 49.5 °F - 34.3 °F 56% 30.09 in 7.0 mi Variable 2.3 mph - N/A   Overcast
12:58 PM 51.8 °F - 35.6 °F 54% 30.06 in 7.0 mi Variable 2.3 mph - N/A   Mostly Cloudy
1:58 PM 53.1 °F - 34.9 °F 50% 30.04 in 7.0 mi Variable 2.3 mph - N/A   Mostly Cloudy
2:58 PM 53.2 °F - 36.0 °F 52% 30.03 in 7.0 mi Variable 3.5 mph - N/A   Overcast
3:58 PM 52.9 °F - 36.0 °F 53% 30.03 in 10.0 mi WNW 3.5 mph - N/A   Mostly Cloudy
4:58 PM 52.2 °F - 36.1 °F 54% 30.03 in 10.0 mi North 3.5 mph - N/A   Mostly Cloudy
5:58 PM 49.3 °F - 38.1 °F 65% 30.03 in 10.0 mi NW 3.5 mph - N/A   Mostly Cloudy
6:58 PM 45.3 °F - 38.5 °F 77% 30.06 in 10.0 mi NNE 1.2 mph - N/A   Mostly Cloudy
7:58 PM 40.8 °F 37.8 °F 38.8 °F 93% 30.07 in 10.0 mi East 4.6 mph - N/A   Mostly Cloudy
8:58 PM 40.5 °F - 37.9 °F 91% 30.08 in 10.0 mi Calm Calm - N/A   Scattered Clouds
9:58 PM 37.4 °F - 36.7 °F 97% 30.07 in 10.0 mi Calm Calm - N/A Fog Shallow Fog
10:58 PM 37.0 °F - 36.9 °F 99% 30.09 in 10.0 mi Calm Calm - N/A Fog Patches of Fog
11:23 PM 35.6 °F 31.7 °F 35.6 °F 100% 30.08 in 1.5 mi NNW 4.6 mph - N/A   Clear
11:28 PM 35.6 °F 32.8 °F 33.8 °F 93% 30.08 in 2.0 mi NNW 3.5 mph - N/A   Clear
11:33 PM 33.8 °F 30.8 °F 33.8 °F 100% 30.08 in 9.0 mi NW 3.5 mph - N/A   Clear
11:58 PM 34.2 °F - 33.8 °F 99% 30.08 in 10.0 mi North 2.3 mph - N/A   Clear